Showing default

BEIDOU 3M16, 43648

Orbit data source: Space-Track

BEIDOU 3M16, 43648 is a payload satellite owned by CNSA (CN) in MEO that was launched on Mon, 15 Oct 2018 UTC via a CHANG ZHENG 3B/YZ-1 launch vehicle from the Xichang Space Center, China (XSC). Payload-class satellites include a variety of spacecraft equipped with specific instruments for various scientific and technological missions. These include communications satellites like Starlink; space stations such as the ISS; scientific satellites like the Hubble; Earth observation satellites from companies like Planet Labs, Umbra, and HawkEye 360; GPS; miniature CubeSats for education and research; and military/defense satellites.

Loading next visibility...
Identifier
43648, 2018-078B
Orbit
MEO
Last TLE update
3 days ago
Origin
Manufacturer
SECM
Mission
Operational Defense Navigation
Bus & Motor
BD-3M/SAR, Unknown motor
Mass
1,014 kg wet, ~850 kg dry
Launch date (UTC)
2018-10-15 (7 years ago)
Launch vehicle
CHANG ZHENG 3B/YZ-1
Launch site
Xichang Space Center, China (XSC)
Object type
Payload
Rocket body
Debris
Shape & HBR
Box + 2 Pan, 10 m
Radar Cross Section
8.984 m², Large (>1 m²)

Expand to show TLE details & history

TLE from 3 days ago
0 BEIDOU 3M16
1 43648U 18078B   25181.44785987 -.00000100  00000-0  00000+0 0  9999
2 43648  54.4032 312.2958 0003726  49.7473 310.2844  1.86232430 45636
Epoch: 2025-06-30T10:44Z
TLE epoch observation values (Epoch: 2025-06-30T10:44:55.092Z)
Latitude
-0°
Longitude
-127.70747°
Altitude
21,521.459 km
Speed
3.78 km/s
True Right ascension
20h 49m 07s
True Declination
0° 00' 00"
Sunlit
Object was in daylight at epoch
Visualization orbit readout
Latitude
54.4496°
Longitude
-38.48146°
Altitude
21,527.732 km
Speed
3.781 km/s
Apparent Right ascension
03h 30m 24s
Apparent Declination
43° 21' 58"
Sunlit
Object is in daylight
Visualization observer readout
Local Sidereal Time
18:08:53
Azimuth
27.622° NE
Elevation
0.637°
Doppler factor
1
Orbital elements
Apogee altitude
21,538.337 km
Perigee altitude
21,517.541 km
Semi-major axis
27,906.076 km
Eccentricity
0.00037
Inclination
54.4032°
RAAN
312.2958°
Arg. of periapsis
49.7473°
True anomaly
Unknown
Mean anomaly
310.2844°
Eccentric anomaly
Unknown
Mean motion
0.46558 °/min
Orbital period
773.23 mins
BSTAR
0
Loading maneuver chart data...
Loading SW <> Apogee altitude chart data...
Loading historical data...
Loading historical data...
Loading historical data...
Loading historical data...
Loading historical data...
Loading historical data...
Loading historical data...
Other satellites on launch #78 in the year 2018 (2018-10-15 UTC)

BEIDOU 3M16 Visibility forecast

Observer location: undefined°, undefined°

Span
Click to sort rows by Start time (UTC) header in descending order
Start Az.
Max El. time (UTC)
Max El. Az.
Max El.
End time (UTC)
End Az.
328 mins2025-07-03 18:07:13.359Z307.641° NW2025-07-03 20:54:13.359Z266.754° W41.042°2025-07-03 23:35:13.359Z200.01° SSW
81 mins2025-07-04 05:02:13.359Z108.435° ESE2025-07-04 06:23:13.359Z77.59° E23.574°2025-07-04 06:23:13.359Z77.59° E
|